Starlink 31557

operational
NORAD ID: 59357 Int'l Des: 2024-060 Owner: SPXS Country: US Constellation: starlink
LEOCIRCULAR

About Starlink 31557

Description loading...

Live Position

Loading 3D Globe...

Upcoming Passes

Altitude History

Altitude vs Time

uPlot chart will show altitude changes over time

Two-Line Element Set

1 59357U 24060K 25352.30865674 -.00001420 00000-0 -42088-4 0 9992
2 59357 43.0010 355.3604 0000963 279.0563 81.0180 15.27579642 97669
Epoch: Dec 18, 2025 • Age: 9 hours

Current Status

Altitude 495.6 km
Velocity 7.62 km/s
Sub-Earth Point -42.83°S, 62.57°W
Launch Date Mar 31, 2024
Age 1.7 years
Type internet

Technical Details

Classification Payload
Mass 730.00 kg
Dry Mass 700.00 kg
Total Mass 730.00 kg
Length 0.30 m
Diameter 4.10 m
Span 29.00 m
Shape Box + pan
Manufacturer SPXS
Bus Type Starlink V2M
Phase Status In Orbit
Owner/State SPXS/US

Large Constellations

Loading constellations...